Weather WX

World > North America > United States > Ohio

The Plains, Ohio Regional Weather

Lat: 39.37N, Lon: 82.13W
Wx Zone: OHZ075
Warning FLW WEATHER ALERT - (More Info. Click Here) Warning
Feedback

The Plains, OH Regional Weather

Expires:201906161900;;171642
ASUS41 KCLE 161812
RWRCLE
OHIO REGIONAL WEATHER ROUNDUP
NATIONAL WEATHER SERVICE WILMINGTON, OH
200 PM EDT SUN JUN 16 2019

NOTE: "FAIR" INDICATES FEW OR NO CLOUDS BELOW 12,000 FEET WITH NO
SIGNIFICANT WEATHER AND/OR OBSTRUCTIONS TO VISIBILITY.


OHZ036-037-039>041-045>050-054>059-063>069-073>076-082>088-161900-
  CENTRAL AND SOUTHEAST OHIO
  
CITY           SKY/WX    TMP DP  RH WIND       PRES   REMARKS
COLUMBUS       CLOUDY    77  65  66 SW15      29.88S                  
OSU AIRPORT    PTSUNNY   76  66  71 SW18G29   29.87S                  
BOLTON FIELD   CLOUDY    77  68  73 SW18      29.89S                  
RICKENBACK AFB CLOUDY    77  67  71 SW18G24   29.88F                  
NEWARK         PTSUNNY   77  67  71 W13G20    29.87S                  
MARION         CLOUDY    76  66  71 SW10      29.86R                  
LANCASTER      PTSUNNY   77  67  71 SW14G26   29.89F                  
ZANESVILLE     FAIR      75  66  73 W6        29.89R                  
NEW PHILLY     CLOUDY    73  66  78 SW7       29.87S                  
$$
  

SKY/WX - Weather  TMP - Temperature  DP - Dew Point  RH - Relative Humidity
WIND - Wind Direction/Speed PRES - Barometric Pressure VSB - Visibility
WCI - Wind Chill Index E13G22 Wind - East Wind 13 mph/Gusts of 22 mph